Location: Taylor Dark Sky Site
(39.1017°N, 87.9564°W)
Time: 07:38:57
(UTC-06:00)

Amateur Radio Satellites - All Passes

Search period start: 19 January 2018 07:08
Search period end: 20 January 2018 07:08
Location: Taylor Dark Sky Site, 39.1017°N, 87.9564°W

Satellite Date Start Highest point End Downlink Frequencies (MHz)
Time Altitude Azimuth
XW-2A 19 Jan 07:14:17 07:17:12 27° 97° (E) 07:20:04 145.665 - 145.685
ZACube-1 19 Jan 07:17:40 07:21:42 30° 96° (E) 07:25:38 437.345
AO-73 19 Jan 07:25:41 07:29:45 32° 96° (E) 07:33:44 145.935
RS-15 19 Jan 07:56:17 08:08:25 68° 114° (ESE) 08:20:27 29.354- 29.394
Oscar 11 19 Jan 08:01:00 08:05:11 47° 99° (E) 08:09:20 .
AAUSAT CUBESAT 2 19 Jan 08:03:22 08:07:22 54° 285° (WNW) 08:11:21 437.432
TIGRISAT 19 Jan 08:09:32 08:13:18 28° 69° (ENE) 08:17:09 435.000
FALCONSAT 3 19 Jan 08:11:20 08:14:40 34° 194° (SSW) 08:18:01 435.103
CUBEBUG 2 19 Jan 08:16:45 08:20:11 20° 293° (WNW) 08:23:37 437.445
SEEDS 19 Jan 08:16:46 08:19:28 17° 293° (WNW) 08:22:11 437.485
HO-68 19 Jan 08:22:35 08:28:28 29° 299° (WNW) 08:34:21 435.675
UNISAT 6 19 Jan 08:23:47 08:27:58 44° 72° (ENE) 08:32:15 437.425
UWE-3 19 Jan 08:25:52 08:29:46 26° 291° (WNW) 08:33:37 435.000/436.395/437.385
FO-29 19 Jan 08:31:31 08:37:06 25° 265° (W) 08:42:14 435.910
BEESAT 3 19 Jan 08:33:53 08:35:17 12° 108° (ESE) 08:36:40 437.485
XW-2A 19 Jan 08:47:45 08:49:36 14° 292° (WNW) 08:51:27 145.665 - 145.685
EO-88 19 Jan 08:53:01 08:54:16 11° 92° (E) 08:55:30 145.990 - 145.960
ZACube-1 19 Jan 08:54:06 08:57:48 25° 292° (WNW) 09:01:27 437.345
DELFI C3 19 Jan 08:58:25 09:02:03 36° 98° (E) 09:05:41 145.870
AO-73 19 Jan 09:02:11 09:05:46 23° 292° (WNW) 09:09:17 145.935
AIST 2D 19 Jan 09:10:15 09:10:34 10° 66° (ENE) 09:10:54 435.315
PRISM 19 Jan 09:11:42 09:15:18 31° 71° (ENE) 09:18:55 437.425
PCSat 19 Jan 09:31:22 09:36:33 50° 113° (ESE) 09:41:47 145.827
YUBILEINY 19 Jan 09:37:46 09:46:13 50° 77° (ENE) 09:54:34 435.215
Oscar 11 19 Jan 09:38:27 09:40:53 15° 295° (WNW) 09:43:19 .
QB50P2 19 Jan 09:42:08 09:43:08 11° 63° (ENE) 09:44:09 145.880/145.840
TIGRISAT 19 Jan 09:46:21 09:49:56 24° 265° (W) 09:53:37 435.000
FALCONSAT 3 19 Jan 09:51:35 09:53:11 12° 207° (SSW) 09:54:46 435.103
Max Valier Satellite 19 Jan 10:01:16 10:04:52 50° 285° (WNW) 10:08:26 145.860
UNISAT 6 19 Jan 10:02:16 10:04:54 15° 269° (W) 10:07:34 437.425
BEESAT 3 19 Jan 10:08:23 10:12:17 56° 304° (WNW) 10:16:13 437.485
RS-15 19 Jan 10:10:19 10:21:42 41° 318° (NW) 10:32:57 29.354- 29.394
EO-79 19 Jan 10:11:22 10:14:29 21° 68° (ENE) 10:17:39 145.935-145.965
DUCHIFAT 1 19 Jan 10:13:08 10:15:44 16° 66° (ENE) 10:18:21 145.980
LO-87 19 Jan 10:17:21 10:19:38 16° 94° (E) 10:21:54 145.935 - 145.965
O/OREOS (USA 219) 19 Jan 10:24:24 10:28:53 73° 67° (ENE) 10:33:21 437.305
EO-88 19 Jan 10:24:40 10:28:03 39° 287° (WNW) 10:31:26 145.990 - 145.960
DELFI C3 19 Jan 10:34:06 10:36:28 16° 293° (WNW) 10:38:49 145.870
AIST 2D 19 Jan 10:39:52 10:43:17 45° 261° (W) 10:46:41 435.315
POLYITAN 1 19 Jan 10:44:44 10:48:48 48° 73° (ENE) 10:52:54 437.675
PRISM 19 Jan 10:47:45 10:50:36 18° 265° (W) 10:53:28 437.425
BEESAT 2 19 Jan 10:51:39 10:55:39 75° 302° (WNW) 10:59:42 435.950
NANOSAT C BR1 19 Jan 11:02:01 11:06:10 68° 75° (ENE) 11:10:23 145.865
QB50P2 19 Jan 11:14:08 11:18:20 66° 259° (W) 11:22:34 145.880/145.840
PCSat 19 Jan 11:15:51 11:20:12 24° 311° (NW) 11:24:35 145.827
AO-85 19 Jan 11:18:47 11:21:59 24° 111° (ESE) 11:25:19 145.980
BUGSAT 1 19 Jan 11:21:12 11:24:11 20° 67° (ENE) 11:27:12 437.445
ESTCUBE 1 19 Jan 11:33:58 11:38:27 79° 284° (WNW) 11:42:55 437.505/2401.250
YUBILEINY 19 Jan 11:35:08 11:42:38 34° 275° (W) 11:50:06 435.215
VELOX 1 19 Jan 11:42:50 11:45:22 15° 93° (E) 11:47:53 145.980
EO-79 19 Jan 11:46:16 11:50:02 31° 263° (W) 11:53:49 145.935-145.965
DUCHIFAT 1 19 Jan 11:47:04 11:51:01 40° 261° (W) 11:55:01 145.980
Gurwin Techsat 1B 19 Jan 11:48:18 11:52:23 23° 65° (ENE) 11:56:29 435.225
LO-87 19 Jan 11:49:53 11:53:03 28° 288° (WNW) 11:56:11 145.935 - 145.965
SPROUT 19 Jan 11:52:30 11:56:29 37° 98° (E) 12:00:28 437.525
AO-91 19 Jan 11:58:20 12:01:08 25° 71° (ENE) 12:04:02 145.960
Oscar 19 19 Jan 12:15:21 12:20:23 54° 72° (ENE) 12:25:27 437.125/150
POLYITAN 1 19 Jan 12:22:49 12:24:49 13° 268° (W) 12:26:51 437.675
RS-15 19 Jan 12:30:45 12:38:54 20° 350° (N) 12:46:53 29.354- 29.394
BUGSAT 1 19 Jan 12:55:45 12:59:19 30° 263° (W) 13:02:57 437.445
AO-85 19 Jan 12:58:46 13:02:14 28° 311° (NW) 13:05:54 145.980
SO-50 19 Jan 13:04:33 13:07:31 16° 43° (NE) 13:10:30 436.795
JUGNU 19 Jan 13:11:00 13:11:43 10° 185° (S) 13:12:27 437.505
VELOX 1 19 Jan 13:17:48 13:22:00 45° 288° (WNW) 13:26:11 145.980
ITAMSAT 1 19 Jan 13:21:37 13:23:23 12° 59° (ENE) 13:25:08 435.822/435.867
Gurwin Techsat 1B 19 Jan 13:26:58 13:32:01 44° 261° (W) 13:37:05 435.225
SPROUT 19 Jan 13:29:06 13:32:04 18° 293° (WNW) 13:35:02 437.525
AO-7 19 Jan 13:29:51 13:37:32 43° 62° (ENE) 13:45:15 .
UKube-1 19 Jan 13:31:28 13:35:06 26° 96° (E) 13:38:42 .
AO-91 19 Jan 13:35:56 13:37:43 14° 267° (W) 13:39:31 145.960
DX 1 19 Jan 13:39:11 13:43:27 55° 101° (E) 13:47:42 434.975-435.025
Oscar 19 19 Jan 13:56:37 13:59:59 17° 268° (W) 14:03:23 437.125/150
50 SAT 19 Jan 14:00:32 14:03:39 68° 283° (WNW) 14:06:44 437.505
ITUPSAT 1 19 Jan 14:11:33 14:13:04 11° 90° (E) 14:14:35 437.325
SO-50 19 Jan 14:43:45 14:48:28 73° 242° (WSW) 14:53:13 436.795
RS-15 19 Jan 14:47:54 14:57:23 26° 27° (NNE) 15:06:27 29.354- 29.394
BEESAT 19 Jan 14:50:05 14:54:19 31° 97° (E) 14:58:32 436.000
MOZHAYETS 4 19 Jan 14:55:39 15:00:16 66° 101° (E) 15:04:50
CUBESAT XI-V 19 Jan 14:55:47 14:58:28 15° 92° (E) 15:01:10 437.345
ITAMSAT 1 19 Jan 14:56:53 15:02:04 87° 255° (WSW) 15:07:16 435.822/435.867
UKube-1 19 Jan 15:07:28 15:11:00 25° 292° (WNW) 15:14:31 .
M-CUBED/EXP-1 PRIME 19 Jan 15:09:23 15:13:32 42° 68° (ENE) 15:17:28 437.505
SRMSAT 19 Jan 15:15:33 15:17:17 11° 179° (S) 15:19:01 437.500
DX 1 19 Jan 15:17:05 15:19:08 13° 296° (WNW) 15:21:11 434.975-435.025
AO-7 19 Jan 15:22:26 15:30:13 43° 260° (W) 15:38:04 .
DOVE 4 19 Jan 15:40:53 15:45:10 60° 75° (ENE) 15:49:18 437.250
ITUPSAT 1 19 Jan 15:46:32 15:51:20 70° 286° (WNW) 15:56:07 437.325
LilacSat-2 19 Jan 16:03:54 16:05:59 14° 67° (ENE) 16:08:04 437.200
XW-2C 19 Jan 16:08:06 16:10:15 15° 67° (ENE) 16:12:23 145.795 - 145.815
CUTE-I 19 Jan 16:19:58 16:24:04 23° 65° (ENE) 16:28:11 437.470
NO-84 19 Jan 16:26:33 16:29:16 26° 130° (SE) 16:31:50 435.350 FM
BEESAT 19 Jan 16:27:57 16:31:57 27° 292° (WNW) 16:35:55 436.000
CUBESAT XI-V 19 Jan 16:31:39 16:36:05 48° 287° (WNW) 16:40:29 437.345
MOZHAYETS 4 19 Jan 16:34:49 16:36:49 13° 297° (WNW) 16:38:49
KKS-1 19 Jan 16:36:35 16:40:18 25° 96° (E) 16:43:59 437.445
XW-2F 19 Jan 16:44:27 16:47:56 35° 73° (ENE) 16:51:27 145.980 - 146.000
M-CUBED/EXP-1 PRIME 19 Jan 16:45:06 16:47:57 17° 260° (W) 16:50:45 437.505
KAITUO 1B 19 Jan 16:45:45 16:48:59 28° 71° (ENE) 16:52:13 145.475/437.950
XW-2D 19 Jan 16:52:31 16:56:14 52° 75° (ENE) 16:59:58 145.860 - 145.880
STARS 19 Jan 16:57:41 17:00:30 16° 93° (E) 17:03:17 437.465
NUDT-PHONESAT 19 Jan 16:59:19 17:02:47 38° 73° (ENE) 17:06:17 437.300
RS-15 19 Jan 17:00:38 17:12:24 72° 55° (NE) 17:23:29 29.354- 29.394
HO-68 19 Jan 17:01:46 17:08:08 36° 64° (ENE) 17:14:31 435.675
XW-2B 19 Jan 17:09:56 17:13:47 84° 73° (ENE) 17:17:37 145.730 - 145.750
DOVE 4 19 Jan 17:22:46 17:23:11 10° 269° (W) 17:23:36 437.250
SEEDS 19 Jan 17:30:54 17:34:13 23° 69° (ENE) 17:37:31 437.485
LilacSat-2 19 Jan 17:36:16 17:39:54 38° 262° (W) 17:43:32 437.200
CUBEBUG 2 19 Jan 17:36:27 17:40:10 28° 69° (ENE) 17:44:01 437.445
CUTE 1.7 + AOD 2 19 Jan 17:39:32 17:43:38 48° 74° (ENE) 17:47:46 437.475
XW-2C 19 Jan 17:40:29 17:44:04 37° 262° (W) 17:47:39 145.795 - 145.815
UWE-3 19 Jan 17:45:32 17:48:47 20° 67° (ENE) 17:52:06 435.000/436.395/437.385
CUTE-I 19 Jan 17:58:47 18:03:49 43° 261° (W) 18:08:53 437.470
NO-84 19 Jan 18:03:58 18:06:23 22° 324° (NW) 18:08:45 435.350 FM
ZACube-1 19 Jan 18:12:31 18:15:49 21° 67° (ENE) 18:19:10 437.345
KKS-1 19 Jan 18:13:00 18:16:47 28° 291° (WNW) 18:20:33 437.445
XW-2F 19 Jan 18:20:05 18:22:09 14° 267° (W) 18:24:12 145.980 - 146.000
AO-73 19 Jan 18:20:06 18:23:30 22° 67° (ENE) 18:26:57 145.935
KAITUO 1B 19 Jan 18:20:21 18:22:56 18° 266° (W) 18:25:32 145.475/437.950
PCSat 19 Jan 18:20:24 18:25:15 33° 53° (NE) 18:30:05 145.827
BEESAT 3 19 Jan 18:25:49 18:29:39 53° 56° (NE) 18:33:25 437.485
STARS 19 Jan 18:32:49 18:36:59 42° 288° (WNW) 18:41:08 437.465
NUDT-PHONESAT 19 Jan 18:35:04 18:36:45 13° 268° (W) 18:38:27 437.300
HO-68 19 Jan 18:49:01 18:55:43 42° 261° (W) 19:02:27 435.675
AAUSAT CUBESAT 2 19 Jan 18:51:30 18:55:39 80° 75° (ENE) 18:59:47 437.432
STRAND 1 19 Jan 18:53:01 18:57:49 39° 98° (E) 19:02:37 437.568
Oscar 11 19 Jan 18:54:32 18:58:23 31° 70° (ENE) 19:02:13 .
SEEDS 19 Jan 19:06:06 19:09:44 28° 264° (W) 19:13:23 437.485
BEESAT 2 19 Jan 19:10:12 19:14:01 41° 54° (NE) 19:17:46 435.950
CUBEBUG 2 19 Jan 19:13:13 19:16:44 24° 266° (W) 19:20:22 437.445
RS-15 19 Jan 19:14:22 19:23:40 30° 257° (WSW) 19:32:40 29.354- 29.394
XW-2A 19 Jan 19:15:40 19:19:01 52° 260° (W) 19:22:23 145.665 - 145.685
CUTE 1.7 + AOD 2 19 Jan 19:17:38 19:19:42 13° 269° (W) 19:21:48 437.475
UWE-3 19 Jan 19:20:56 19:24:56 35° 263° (W) 19:29:06 435.000/436.395/437.385
FO-29 19 Jan 19:40:45 19:45:43 44° 99° (E) 19:50:43 435.910
DELFI C3 19 Jan 19:43:03 19:45:43 18° 68° (ENE) 19:48:23 145.870
ZACube-1 19 Jan 19:47:47 19:51:49 35° 263° (W) 19:55:58 437.345
AO-85 19 Jan 19:49:37 19:53:33 23° 48° (NE) 19:57:41 145.980
AO-73 19 Jan 19:55:31 19:59:29 33° 264° (W) 20:03:34 145.935
PCSat 19 Jan 20:03:45 20:08:37 34° 250° (WSW) 20:13:27 145.827
BEESAT 3 19 Jan 20:05:25 20:06:39 11° 252° (WSW) 20:07:53 437.485
UNISAT 6 19 Jan 20:18:45 20:20:06 11° 89° (E) 20:21:26 437.425
Oscar 11 19 Jan 20:31:11 20:34:30 21° 266° (W) 20:37:51 .
STRAND 1 19 Jan 20:32:41 20:36:45 24° 294° (WNW) 20:40:48 437.568
Max Valier Satellite 19 Jan 20:38:09 20:41:47 53° 75° (ENE) 20:45:27 145.860
nSIGHT-1 19 Jan 20:47:22 20:50:32 74° 325° (NW) 20:53:41 .
BEESAT 2 19 Jan 20:48:58 20:51:21 15° 250° (WSW) 20:53:42 435.950
ISS 19 Jan 20:54:57 20:58:13 86° 138° (SE) 21:01:28 437.550
EO-88 19 Jan 21:00:11 21:03:48 66° 76° (ENE) 21:07:26 145.990 - 145.960
DELFI C3 19 Jan 21:16:44 21:20:12 30° 263° (W) 21:23:42 145.870
FO-29 19 Jan 21:26:48 21:30:32 20° 296° (WNW) 21:34:15 435.910
AO-85 19 Jan 21:29:21 21:34:14 52° 244° (WSW) 21:39:22 145.980
TIGRISAT 19 Jan 21:37:34 21:42:17 75° 101° (ESE) 21:46:58 435.000
UNISAT 6 19 Jan 21:52:32 21:57:13 70° 285° (WNW) 22:01:53 437.425
AIST 2D 19 Jan 22:06:57 22:08:34 13° 93° (E) 22:10:10 435.315
LO-87 19 Jan 22:23:37 22:27:10 88° 69° (ENE) 22:30:45 145.935 - 145.965
nSIGHT-1 19 Jan 22:25:16 22:27:08 15° 340° (NNW) 22:29:00 .
PRISM 19 Jan 22:28:20 22:32:22 60° 101° (ESE) 22:36:23 437.425
ESTCUBE 1 19 Jan 22:31:47 22:36:18 81° 77° (ENE) 22:40:51 437.505/2401.250
ISS 19 Jan 22:32:49 22:35:03 17° 339° (NNW) 22:37:17 437.550
YUBILEINY 19 Jan 22:36:43 22:45:20 60° 91° (E) 22:53:55 435.215
VELOX 1 19 Jan 22:39:52 22:41:43 13° 63° (ENE) 22:43:34 145.980
SPROUT 19 Jan 22:44:46 22:48:11 24° 69° (ENE) 22:51:38 437.525
NANOSAT C BR1 19 Jan 22:49:20 22:50:55 12° 91° (E) 22:52:29 145.865
NO-84 19 Jan 23:00:21 23:01:40 12° 30° (NNE) 23:03:00 435.350 FM
QB50P2 19 Jan 23:00:35 23:03:52 21° 95° (E) 23:07:08 145.880/145.840
TIGRISAT 19 Jan 23:16:39 23:18:17 12° 298° (WNW) 23:19:55 435.000
EO-79 19 Jan 23:31:20 23:35:25 42° 99° (E) 23:39:28 145.935-145.965
DUCHIFAT 1 19 Jan 23:31:52 23:35:41 31° 97° (E) 23:39:29 145.980
AIST 2D 19 Jan 23:38:42 23:41:48 31° 287° (WNW) 23:44:53 435.315
POLYITAN 1 20 Jan 00:05:51 00:10:09 75° 284° (WNW) 00:14:25 437.675
PRISM 20 Jan 00:06:05 00:07:05 11° 297° (WNW) 00:08:05 437.425
VELOX 1 20 Jan 00:13:17 00:17:37 60° 259° (W) 00:21:58 145.980
SPROUT 20 Jan 00:20:22 00:23:56 26° 264° (W) 00:27:33 437.525
NANOSAT C BR1 20 Jan 00:22:44 00:26:54 54° 286° (WNW) 00:31:03 145.865
50 SAT 20 Jan 00:24:08 00:26:33 21° 71° (ENE) 00:28:58 437.505
UKube-1 20 Jan 00:25:06 00:28:14 20° 67° (ENE) 00:31:23 .
Oscar 19 20 Jan 00:28:54 00:32:41 20° 93° (E) 00:36:25 437.125/150
DX 1 20 Jan 00:33:22 00:37:25 41° 71° (ENE) 00:41:29 434.975-435.025
YUBILEINY 20 Jan 00:35:14 00:42:36 29° 290° (WNW) 00:50:00 435.215
O/OREOS (USA 219) 20 Jan 00:35:19 00:39:50 75° 292° (WNW) 00:44:20 437.305
QB50P2 20 Jan 00:35:53 00:39:38 30° 290° (WNW) 00:43:23 145.880/145.840
NO-84 20 Jan 00:36:12 00:39:05 65° 226° (SW) 00:42:05 435.350 FM
BUGSAT 1 20 Jan 00:37:47 00:41:46 39° 98° (E) 00:45:45 437.445
DUCHIFAT 1 20 Jan 01:07:56 01:11:07 21° 292° (WNW) 01:14:17 145.980
EO-79 20 Jan 01:08:08 01:10:47 16° 294° (WNW) 01:13:26 145.935-145.965
ITUPSAT 1 20 Jan 01:17:11 01:19:22 13° 62° (ENE) 01:21:33 437.325
AO-91 20 Jan 01:22:50 01:27:18 86° 100° (E) 01:32:15 145.960
AO-7 20 Jan 01:36:16 01:38:48 11° 88° (E) 01:41:19 .
nSIGHT-1 20 Jan 01:39:35 01:41:40 16° 21° (NNE) 01:43:45 .
Gurwin Techsat 1B 20 Jan 01:43:54 01:49:15 81° 104° (ESE) 01:54:34 435.225
ISS 20 Jan 01:48:13 01:50:14 15° 19° (NNE) 01:52:15 437.550
BEESAT 20 Jan 01:55:16 01:59:28 32° 69° (ENE) 02:03:41 436.000
MOZHAYETS 4 20 Jan 01:55:58 02:00:28 54° 74° (ENE) 02:05:00
50 SAT 20 Jan 01:56:28 01:58:13 14° 266° (W) 01:59:58 437.505
CUBESAT XI-V 20 Jan 01:58:22 02:00:56 15° 64° (ENE) 02:03:29 437.345
UKube-1 20 Jan 02:00:07 02:04:00 33° 262° (W) 02:07:55 .
Oscar 19 20 Jan 02:07:16 02:12:11 45° 290° (WNW) 02:17:04 437.125/150
DX 1 20 Jan 02:11:04 02:13:45 16° 267° (W) 02:16:27 434.975-435.025
BUGSAT 1 20 Jan 02:13:59 02:16:47 17° 294° (WNW) 02:19:35 437.445
ITUPSAT 1 20 Jan 02:51:50 02:56:34 68° 258° (WSW) 03:01:22 437.325
ITAMSAT 1 20 Jan 03:11:04 03:15:50 36° 98° (E) 03:20:35 435.822/435.867
nSIGHT-1 20 Jan 03:15:01 03:18:13 89° 220° (SW) 03:21:23 .
ISS 20 Jan 03:23:54 03:27:10 74° 37° (NE) 03:30:27 437.550
AO-7 20 Jan 03:24:29 03:32:52 71° 106° (ESE) 03:41:10 .
Gurwin Techsat 1B 20 Jan 03:26:05 03:28:28 13° 300° (WNW) 03:30:51 435.225
CUBESAT XI-V 20 Jan 03:33:10 03:37:47 57° 260° (W) 03:42:25 437.345
BEESAT 20 Jan 03:33:18 03:37:12 25° 264° (W) 03:41:09 436.000
KKS-1 20 Jan 03:33:49 03:37:08 21° 67° (ENE) 03:40:28 437.445
MOZHAYETS 4 20 Jan 03:35:32 03:37:55 14° 269° (W) 03:40:20
DOVE 4 20 Jan 03:40:57 03:43:51 17° 94° (E) 03:46:49 437.250
STARS 20 Jan 03:54:01 03:56:08 13° 63° (ENE) 03:58:15 437.465
FALCONSAT 3 20 Jan 04:19:43 04:22:52 27° 162° (SSE) 04:26:01 435.103
M-CUBED/EXP-1 PRIME 20 Jan 04:23:16 04:26:09 27° 102° (ESE) 04:28:58 437.505
ITAMSAT 1 20 Jan 04:50:48 04:55:06 27° 294° (WNW) 04:59:25 435.822/435.867
SO-50 20 Jan 04:56:51 05:01:06 46° 116° (ESE) 05:05:25 436.795
ISS 20 Jan 05:02:28 05:03:12 11° 232° (SW) 05:03:56 437.550
KKS-1 20 Jan 05:09:28 05:13:28 33° 262° (W) 05:17:28 437.445
LilacSat-2 20 Jan 05:10:46 05:13:44 22° 95° (E) 05:16:42 437.200
XW-2C 20 Jan 05:14:13 05:17:12 22° 95° (E) 05:20:08 145.795 - 145.815
DOVE 4 20 Jan 05:17:34 05:21:38 40° 287° (WNW) 05:25:53 437.250
AO-7 20 Jan 05:18:18 05:24:53 27° 304° (NW) 05:31:26 .
STARS 20 Jan 05:27:43 05:31:58 55° 259° (W) 05:36:16 437.465
XW-2F 20 Jan 05:50:56 05:54:38 61° 101° (E) 05:58:18 145.980 - 146.000
KAITUO 1B 20 Jan 05:50:57 05:54:29 44° 99° (E) 05:58:00 145.475/437.950
FO-29 20 Jan 05:52:28 05:57:15 21° 64° (ENE) 06:01:42 435.910
FALCONSAT 3 20 Jan 05:58:03 06:01:35 47° 178° (S) 06:05:08 435.103
M-CUBED/EXP-1 PRIME 20 Jan 05:58:27 06:00:19 14° 299° (WNW) 06:02:09 437.505
XW-2D 20 Jan 05:59:47 06:03:33 88° 283° (WNW) 06:07:17 145.860 - 145.880
NUDT-PHONESAT 20 Jan 06:03:34 06:07:12 62° 100° (E) 06:10:49 437.300
STRAND 1 20 Jan 06:07:39 06:12:33 50° 72° (ENE) 06:17:28 437.568
CUTE-I 20 Jan 06:16:27 06:21:49 83° 104° (ESE) 06:27:08 437.470
XW-2B 20 Jan 06:17:26 06:21:07 53° 285° (WNW) 06:24:45 145.730 - 145.750
HO-68 20 Jan 06:17:27 06:24:09 41° 99° (E) 06:30:48 435.675
AAUSAT CUBESAT 2 20 Jan 06:36:11 06:38:07 13° 92° (E) 06:40:02 437.432
SO-50 20 Jan 06:38:25 06:41:47 21° 314° (NW) 06:45:12 436.795
LilacSat-2 20 Jan 06:44:55 06:47:54 22° 290° (WNW) 06:50:52 437.200
XW-2C 20 Jan 06:48:19 06:51:15 22° 290° (WNW) 06:54:11 145.795 - 145.815
SEEDS 20 Jan 06:50:07 06:54:10 48° 99° (E) 06:58:10 437.485
